Location: D�derode
(51.8092°N, 10.1065°E)
Time: 19:51:37
(UTC+00:00)

PAYLOAD B - Pass Details

Date: 01 December 2020
Orbit: 849 x 871 km, 99.1° (Epoch: 25 January)

Event Time Altitude Azimuth Distance (km) Brightness Sun altitude
Rises 15:48:11 0° 151° (SSE) 3,442 7.4 -5.5°
Reaches altitude 10° 15:50:34 10° 148° (SSE) 2,506 6.6 -5.8°
Maximum altitude 15:56:04 64° 68° (ENE) 956 4.3 -6.6°
Drops below altitude 10° 16:01:34 10° 349° (N) 2,508 6.5 -7.3°
Sets 16:03:58 0° 346° (NNW) 3,446 7.2 -7.7°
